Wind_Speed
61 68 71 75 81 79 71 69 61 47 41 42 42 43 44 51 56 59 66 66 45 33 24 20 20 28 39 49 51 52 60 67 71 72 73 74 74 74 73 73 73 71 74
70 75 77 79 77 69 68 61 45 37 38 39 39 44 48 53 56 61 63 65 62 42 30 21 14 16 27 38 44 46 52 59 65 68 70 70 71 70 70 70 68 70 72
76 79 74 71 68 66 60 47 32 33 35 37 38 40 46 49 54 57 60 64 62 62 49 37 23 12 16 26 34 36 38 46 54 59 61 63 64 62 60 59 58 59 59
78 73 69 68 65 59 49 33 28 31 35 37 37 37 45 47 49 51 54 56 58 59 58 50 39 27 16 16 24 30 32 35 42 49 53 53 52 48 47 45 41 41 44
74 73 69 65 58 46 36 26 27 29 33 33 34 37 42 43 45 47 49 49 49 54 54 48 43 39 31 21 13 21 27 27 28 32 36 38 38 37 36 35 43 45 47
72 69 64 52 40 36 28 24 28 26 29 30 32 35 41 42 42 45 45 47 46 47 45 46 43 40 36 32 26 20 14 8 9 16 22 25 28 32 36 35 35 32 31
64 56 41 37 34 31 26 25 27 26 28 29 31 36 40 41 42 44 44 45 46 45 43 39 38 37 35 32 28 25 21 15 11 12 16 18 20 21 20 22 24 27 30
38 31 35 31 28 28 25 27 29 29 32 33 33 36 40 41 42 44 44 44 45 44 43 41 40 37 31 28 22 22 19 18 16 14 15 18 21 22 23 24 25 27 29
31 32 27 26 28 26 28 30 32 33 36 37 42 42 45 45 43 41 42 43 43 44 44 42 39 38 36 33 31 28 26 22 21 20 21 22 23 24 25 26 27 29 32
26 23 26 28 29 31 33 34 36 39 41 44 45 47 48 49 45 43 46 46 45 45 44 42 40 39 38 36 34 32 32 29 30 29 28 28 31 33 33 32 31 32 36
24 25 27 31 34 35 37 39 42 45 47 48 49 51 53 49 48 49 49 48 46 46 44 42 40 40 39 40 39 39 37 36 37 37 38 36 37 36 38 39 39 40 39
23 26 29 31 32 34 37 41 43 44 45 48 51 53 50 49 50 49 50 50 49 50 49 49 49 51 51 48 48 46 43 43 44 45 45 44 43 47 49 47 48 48 44
33 35 37 38 40 41 43 44 45 47 49 52 50 50 51 51 52 54 55 56 56 56 56 56 57 56 58 57 57 56 55 55 54 54 54 53 51 53 53 54 53 51 52
35 36 36 37 39 41 43 45 46 48 49 51 54 56 57 58 59 59 60 61 62 62 61 61 62 62 62 62 61 62 63 63 63 63 62 62 62 63 62 62 61 60 60
38 39 40 42 45 48 49 51 53 55 56 58 59 60 61 63 64 65 65 65 66 66 67 67 69 69 69 70 70 71 71 72 71 72 72 71 71 71 70 70 70 70 68
44 46 49 53 55 56 59 60 62 64 66 66 68 70 70 70 72 73 73 73 74 74 75 76 77 77 77 78 78 78 79 79 80 82 81 81 81 79 77 77 77 76 76
56 57 58 61 63 64 65 67 69 71 73 74 75 76 77 80 81 82 84 84 84 84 86 88 88 87 86 86 87 87 88 89 89 89 89 89 89 87 84 82 83 83 81
66 67 69 71 72 72 74 76 77 78 79 81 83 85 87 89 91 93 94 95 95 94 96 95 93 93 91 93 94 94 95 96 97 97 97 94 93 91 88 90 88 86 85
75 76 77 79 80 81 82 84 85 86 86 89 92 94 97 98 100 103 105 106 107 106 102 98 96 92 93 92 92 93 95 97 99 97 96 95 95 93 89 88 91 89 89
84 85 86 87 88 89 90 90 92 94 95 98 101 104 106 107 109 111 113 113 111 109 104 99 94 93 94 93 93 91 93 95 96 97 97 95 92 92 92 89 90 91 95
93 94 95 97 98 99 99 99 101 102 103 107 111 113 114 115 117 118 115 112 111 107 105 98 95 93 92 96 98 100 99 97 97 97 99 96 95 94 95 93 93 95 96
99 100 102 105 107 109 110 111 113 114 115 119 122 123 124 125 121 116 112 108 106 107 104 101 101 99 97 97 98 102 104 102 100 101 100 98 98 97 96 95 95 95 96
105 108 110 112 114 117 118 120 123 122 124 125 123 121 120 121 119 115 114 111 108 105 103 101 99 99 101 99 100 100 102 102 101 100 98 98 99 99 97 96 95 92 93
112 111 112 114 115 117 116 116 117 119 122 124 126 128 127 124 121 117 115 112 109 106 102 99 95 94 95 97 98 96 98 97 96 95 94 92 93 95 96 96 95 94 91
115 117 119 120 120 121 123 124 123 123 122 124 122 119 120 118 113 110 107 101 97 97 94 93 93 91 91 95 97 97 96 96 96 94 93 92 93 92 91 91 93 92 91
121 122 125 126 126 128 131 131 127 124 124 122 119 115 111 111 108 105 100 98 94 95 95 95 95 93 94 94 96 97 95 95 97 95 93 91 88 87 87 87 88 88 85
Wind_Direction
291 291 293 295 299 303 305 308 310 309 312 315 319 332 346 360 1 3 5 6 359 348 337 314 277 245 232 231 236 240 242 243 245 247 249 251 254 256 260 263 263 265 265
288 292 295 296 299 302 305 307 306 310 317 321 329 338 352 357 4 3 5 9 13 14 8 354 329 269 241 234 236 241 242 243 246 249 251 254 257 260 263 265 266 267 268
288 292 295 296 299 302 303 303 302 311 314 317 331 341 351 356 360 2 4 8 14 20 21 21 7 334 275 251 246 248 251 250 249 250 251 254 257 260 265 269 270 269 269
290 291 293 296 299 299 296 293 303 307 313 322 330 340 346 352 357 357 3 6 11 12 18 24 25 13 342 284 254 248 249 253 253 252 252 255 260 262 268 269 272 272 272
290 290 293 295 294 290 288 282 298 299 311 321 326 336 342 348 351 354 356 1 5 6 8 15 23 29 27 18 319 269 258 256 258 255 253 256 261 263 268 277 279 278 277
287 289 291 289 284 282 279 282 293 297 310 321 320 328 335 341 345 347 350 352 356 1 6 7 11 12 18 25 30 34 28 356 282 264 267 270 274 279 284 282 276 280 282
286 286 282 278 280 273 275 286 294 297 307 313 314 318 325 333 336 336 338 341 346 350 352 359 1 2 6 8 18 20 20 13 349 315 300 294 291 287 288 292 285 280 280
277 273 276 274 270 268 280 286 290 295 300 305 316 320 319 323 327 326 327 331 334 337 342 344 348 352 354 357 356 357 354 352 343 328 311 303 301 300 296 297 296 290 289
277 275 267 268 268 274 282 285 289 296 297 306 311 314 317 318 318 317 319 324 326 327 331 334 335 338 339 341 341 340 334 330 322 316 319 315 314 310 309 310 308 305 303
269 269 271 274 280 280 282 284 288 294 300 301 303 305 309 309 308 309 314 318 319 322 320 323 327 327 329 328 328 327 324 322 319 315 313 311 311 312 309 304 302 299 300
270 274 279 282 282 285 287 291 295 297 295 299 298 301 303 305 306 309 310 312 312 314 316 316 315 315 315 314 317 316 314 312 312 310 306 303 301 304 306 301 301 301 299
279 277 278 286 289 293 295 296 296 296 297 298 299 302 304 305 306 308 310 310 311 313 314 312 309 310 311 309 308 308 307 306 303 304 301 298 293 294 297 295 294 295 292
293 295 295 297 297 296 294 295 295 296 297 298 299 301 302 304 306 307 308 308 307 307 307 307 306 306 305 304 304 304 303 303 301 300 298 296 293 292 293 295 291 288 289
291 291 291 292 293 294 294 294 294 293 295 296 296 299 303 304 304 303 302 301 300 300 301 301 301 301 301 300 297 297 298 297 296 296 296 294 294 294 293 293 292 291 290
295 293 292 291 290 290 290 291 293 294 294 294 296 296 296 297 298 298 298 299 299 298 297 296 296 297 297 297 296 294 294 294 293 293 293 293 293 293 292 291 291 291 288
284 283 284 285 286 287 290 291 292 292 293 295 296 297 297 298 298 298 298 298 298 298 298 298 297 296 295 295 294 293 292 292 292 293 292 292 291 290 289 289 288 287 286
289 289 289 289 289 290 291 292 292 292 293 294 296 298 298 298 296 296 296 296 297 298 298 297 296 295 294 292 292 292 291 291 290 289 289 288 287 286 286 285 285 285 283
288 287 287 287 288 289 290 291 291 292 292 293 294 294 295 296 297 297 297 297 297 296 297 296 294 292 291 290 289 288 287 286 284 284 283 282 282 282 281 281 280 279 278
286 285 284 284 285 287 287 287 289 291 292 293 294 294 295 295 296 296 296 296 295 295 295 294 293 290 288 285 284 282 281 281 280 279 278 279 279 279 279 278 278 276 275
283 283 283 283 284 286 287 288 289 290 291 291 292 292 292 293 292 292 292 292 293 294 294 291 289 287 286 284 281 281 280 279 279 279 279 278 278 277 276 275 275 274 274
283 283 284 284 285 286 286 285 285 286 287 287 288 290 290 290 291 290 291 291 291 292 292 291 289 287 285 281 279 278 278 278 278 278 279 278 278 277 275 274 273 272 272
282 282 283 283 284 284 285 285 285 286 286 287 289 289 290 292 292 293 292 292 292 292 292 291 290 287 284 281 280 278 279 279 277 277 278 278 278 277 275 274 273 273 274
277 277 279 280 282 283 284 284 284 285 286 287 290 290 290 291 291 291 292 292 291 290 289 286 286 285 283 281 280 280 280 279 279 279 277 277 277 277 277 276 275 274 273
277 277 278 279 280 281 281 281 283 285 286 288 288 290 293 293 293 294 290 289 289 289 287 285 284 283 282 282 281 280 279 278 278 277 275 274 274 275 277 277 276 277 275
275 276 278 279 279 280 281 282 285 288 288 288 289 289 291 291 290 290 289 288 289 287 285 285 283 281 280 280 279 279 278 278 278 278 277 276 277 276 275 275 274 274 275
274 275 277 279 280 281 281 282 286 289 290 291 292 291 292 289 289 288 288 290 287 286 285 283 281 280 280 279 280 281 281 281 281 281 280 281 280 278 276 274 274 273 272
Height
10745 10740 10736 10732 10728 10723 10718 10712 10706 10698 10692 10688 10682 10674 10663 10647 10633 10616 10599 10580 10559 10547 10541 10538 10539 10543 10551 10561 10571 10581 10589 10595 10601 10608 10617 10623 10627 10631 10635 10637 10639 10642 10641
10731 10728 10724 10719 10716 10711 10707 10701 10695 10690 10685 10680 10673 10666 10652 10641 10630 10616 10602 10585 10568 10552 10544 10540 10540 10544 10549 10556 10564 10571 10579 10584 10590 10597 10603 10608 10612 10618 10620 10621 10624 10624 10624
10719 10716 10713 10708 10705 10700 10695 10691 10687 10683 10679 10674 10667 10659 10648 10639 10627 10617 10604 10591 10578 10565 10554 10547 10546 10547 10551 10556 10562 10568 10574 10577 10581 10586 10591 10597 10601 10607 10609 10609 10609 10609 10608
10707 10703 10701 10696 10693 10688 10684 10682 10679 10675 10671 10666 10660 10653 10646 10635 10627 10619 10610 10599 10588 10578 10569 10562 10556 10553 10554 10555 10557 10562 10566 10569 10572 10576 10581 10587 10592 10596 10598 10597 10596 10595 10593
10694 10689 10686 10683 10679 10676 10674 10672 10670 10668 10665 10660 10654 10647 10641 10633 10626 10619 10611 10604 10596 10588 10581 10574 10569 10564 10560 10556 10555 10557 10559 10561 10564 10568 10575 10579 10583 10585 10587 10586 10583 10583 10581
10679 10676 10672 10669 10667 10665 10664 10663 10662 10661 10658 10654 10649 10642 10637 10630 10625 10618 10612 10605 10598 10592 10587 10580 10575 10571 10566 10563 10560 10558 10557 10558 10561 10565 10569 10572 10574 10575 10575 10576 10574 10572 10570
10665 10661 10658 10657 10657 10656 10655 10654 10653 10652 10651 10647 10643 10637 10631 10626 10620 10615 10610 10605 10599 10593 10588 10584 10580 10575 10571 10567 10564 10562 10562 10562 10563 10564 10565 10566 10567 10567 10568 10567 10567 10566 10564
10649 10648 10648 10648 10648 10647 10647 10646 10645 10644 10642 10639 10635 10632 10627 10622 10617 10612 10607 10602 10597 10592 10588 10583 10578 10575 10572 10570 10568 10567 10566 10565 10564 10563 10562 10562 10561 10560 10561 10559 10558 10557 10556
10639 10639 10639 10640 10640 10640 10639 10638 10635 10634 10632 10629 10625 10622 10618 10614 10611 10606 10602 10597 10592 10589 10585 10581 10577 10573 10569 10567 10564 10563 10562 10561 10560 10559 10556 10554 10553 10552 10550 10549 10548 10545 10543
10632 10633 10633 10633 10633 10632 10630 10629 10627 10625 10622 10619 10616 10613 10610 10607 10604 10599 10595 10590 10585 10582 10578 10576 10573 10569 10567 10564 10561 10558 10556 10554 10553 10551 10549 10547 10545 10543 10542 10540 10539 10538 10535
10628 10628 10628 10626 10624 10623 10622 10621 10618 10616 10613 10610 10608 10605 10602 10597 10594 10590 10586 10582 10578 10574 10571 10568 10565 10562 10560 10557 10555 10553 10551 10548 10545 10542 10539 10538 10534 10532 10531 10528 10527 10526 10524
10622 10621 10620 10619 10618 10617 10615 10612 10609 10606 10603 10600 10597 10594 10590 10587 10583 10579 10575 10571 10568 10564 10561 10559 10556 10553 10550 10547 10543 10541 10539 10536 10534 10533 10530 10528 10525 10522 10519 10516 10514 10513 10513
10615 10613 10611 10610 10608 10606 10603 10600 10597 10595 10592 10589 10586 10582 10578 10575 10571 10568 10564 10560 10557 10553 10549 10546 10543 10540 10537 10534 10530 10527 10525 10522 10519 10517 10515 10513 10510 10507 10505 10502 10498 10497 10495
10607 10605 10603 10601 10598 10595 10592 10589 10587 10583 10580 10576 10572 10568 10565 10561 10557 10554 10550 10547 10543 10540 10537 10533 10529 10526 10523 10519 10515 10512 10508 10506 10503 10500 10497 10494 10491 10487 10485 10482 10480 10477 10475
10596 10594 10592 10589 10586 10583 10581 10577 10573 10569 10565 10561 10557 10554 10550 10545 10541 10537 10534 10530 10526 10521 10518 10515 10511 10508 10504 10501 10497 10493 10489 10485 10482 10479 10476 10472 10469 10465 10463 10460 10458 10456 10453
10585 10582 10579 10574 10570 10567 10563 10559 10556 10552 10548 10544 10540 10536 10532 10528 10523 10517 10513 10508 10504 10500 10496 10492 10487 10484 10481 10478 10474 10470 10465 10462 10457 10454 10451 10447 10442 10440 10438 10435 10432 10430 10429
10571 10567 10563 10558 10553 10550 10546 10542 10538 10533 10529 10525 10521 10517 10511 10506 10501 10496 10489 10484 10479 10475 10470 10465 10460 10456 10453 10450 10447 10444 10439 10434 10430 10426 10422 10418 10415 10412 10411 10409 10405 10402 10401
10553 10549 10544 10539 10534 10531 10527 10522 10518 10514 10509 10504 10499 10494 10487 10481 10475 10468 10462 10457 10451 10446 10442 10438 10432 10426 10424 10420 10417 10414 10409 10404 10399 10395 10390 10388 10384 10382 10382 10379 10374 10371 10370
10531 10527 10524 10518 10513 10509 10504 10499 10494 10490 10486 10479 10473 10467 10461 10455 10447 10440 10433 10427 10421 10416 10411 10407 10401 10396 10389 10386 10382 10380 10375 10370 10364 10359 10354 10354 10352 10348 10349 10349 10342 10340 10334
10506 10503 10497 10492 10487 10483 10479 10474 10468 10463 10459 10452 10445 10438 10432 10427 10420 10413 10405 10397 10391 10385 10379 10372 10368 10363 10356 10352 10348 10346 10342 10337 10332 10326 10323 10321 10321 10317 10315 10317 10313 10309 10299
10478 10473 10469 10464 10459 10456 10453 10446 10441 10437 10432 10424 10415 10409 10403 10395 10388 10379 10369 10364 10356 10351 10344 10341 10331 10328 10323 10315 10311 10310 10309 10306 10301 10295 10289 10287 10286 10286 10282 10281 10280 10276 10273
10453 10447 10444 10437 10432 10427 10423 10418 10412 10408 10403 10394 10385 10377 10370 10362 10354 10345 10334 10328 10323 10318 10310 10305 10299 10289 10284 10280 10273 10271 10270 10270 10270 10265 10260 10256 10252 10250 10248 10247 10248 10247 10243
10429 10422 10418 10412 10404 10396 10393 10387 10378 10376 10369 10361 10353 10344 10336 10325 10317 10312 10304 10296 10287 10282 10278 10271 10264 10255 10246 10241 10240 10238 10236 10234 10233 10233 10231 10226 10219 10213 10213 10211 10211 10215 10215
10398 10393 10388 10381 10372 10364 10358 10351 10343 10338 10332 10328 10317 10306 10301 10291 10280 10272 10266 10263 10255 10246 10243 10238 10230 10226 10218 10206 10200 10201 10198 10197 10196 10196 10197 10195 10191 10186 10183 10179 10177 10178 10183
10364 10359 10354 10347 10337 10329 10319 10311 10307 10301 10299 10292 10283 10274 10266 10256 10248 10238 10231 10226 10220 10212 10210 10203 10196 10191 10189 10178 10171 10167 10164 10162 10160 10161 10162 10160 10157 10157 10154 10150 10148 10147 10147
10329 10323 10318 10314 10305 10297 10286 10275 10270 10266 10264 10261 10249 10237 10230 10220 10212 10206 10203 10191 10187 10180 10171 10167 10160 10158 10155 10150 10144 10138 10136 10133 10126 10129 10128 10126 10123 10121 10120 10121 10117 10117 10119